Location: *
(43.7000°S, 168.7000°W)
Time: 14:19:16
(UTC+00:00)

SKYMED 2 - Pass Details

Date: 07 July 2020
Orbit: 621 x 623 km, 97.9° (Epoch: 04 August)

Event Time Altitude Azimuth Distance (km) Brightness Sun altitude
Rises 18:02:24 0° 176° (S) 2,948 6.8 -8.1°
Reaches altitude 10° 18:04:44 10° 184° (S) 2,033 5.9 -7.7°
Maximum altitude 18:08:47 36° 250° (WSW) 1,007 4.2 -7.0°
Drops below altitude 10° 18:12:47 10° 316° (NW) 2,008 6.0 -6.4°
Sets 18:15:05 0° 324° (NW) 2,906 6.9 -6.0°
